Tracking 35275 objects as of 9-Sep-2026
HD Live streaming from Space Station
objects crossing your sky now

COSMOS 1813 DEB


COSMOS 1813 DEB is no longer on orbit


NORAD ID: 17867
Int'l Code: 1987-004CK
Launch date: January 15, 1987
Source: Commonwealth of Independent States (former USSR) (CIS)
Launch site: PLESETSK MISSILE AND SPACE COMPLEX (PKMTR)
Decay date: 1987-08-13

Note: This is SATELLITE DEBRIS
Your satellite tracking list
Your tracking list is empty




NASA's NSSDC Master Catalog

Two Line Element Set (TLE):
1 17867U 87004 CK 87202.47647547  .00225559 +00000-0 +67469-3 0  9994
2 17867 072.8001 193.1079 0016620 173.2645 186.8816 15.91920017026755
Source of the keplerian elements: AFSPC